TimeMST,TemperatureF,Dew PointF,Humidity,Sea Level PressureIn,VisibilityMPH,Wind Direction,Wind SpeedMPH,Gust SpeedMPH,PrecipitationIn,Events,Conditions,WindDirDegrees,DateUTC
12:54 AM,30.0,19.0,64,30.14,10.0,SW,18.4,-,N/A,,Clear,230,2013-02-03 07:54:00
1:54 AM,30.9,19.0,61,30.11,10.0,SW,20.7,-,N/A,,Clear,230,2013-02-03 08:54:00
2:54 AM,30.9,19.0,61,30.08,10.0,SW,20.7,-,N/A,,Clear,220,2013-02-03 09:54:00
3:54 AM,34.0,19.0,54,30.04,10.0,SW,16.1,-,N/A,,Clear,230,2013-02-03 10:54:00
4:54 AM,32.0,19.0,59,30.02,10.0,SW,15.0,-,N/A,,Clear,230,2013-02-03 11:54:00
5:54 AM,32.0,17.1,54,30.00,10.0,SW,16.1,-,N/A,,Clear,230,2013-02-03 12:54:00
6:54 AM,33.1,18.0,54,29.99,10.0,WSW,13.8,-,N/A,,Clear,240,2013-02-03 13:54:00
7:54 AM,33.1,19.0,56,29.98,10.0,SSW,18.4,-,N/A,,Clear,210,2013-02-03 14:54:00
8:54 AM,37.0,19.0,48,29.96,10.0,WSW,13.8,-,N/A,,Clear,240,2013-02-03 15:54:00
9:54 AM,37.0,21.9,54,29.96,10.0,WSW,19.6,-,N/A,,Clear,240,2013-02-03 16:54:00
10:54 AM,37.0,21.9,54,29.97,10.0,WSW,6.9,-,N/A,,Clear,250,2013-02-03 17:54:00
11:54 AM,42.1,21.0,43,29.97,10.0,NW,8.1,-,N/A,,Mostly Cloudy,310,2013-02-03 18:54:00
12:54 PM,41.0,23.0,49,29.96,10.0,WNW,10.4,-,N/A,,Clear,300,2013-02-03 19:54:00
1:54 PM,41.0,23.0,49,29.96,10.0,WNW,13.8,19.6,N/A,,Clear,300,2013-02-03 20:54:00
2:54 PM,39.0,25.0,57,29.96,10.0,WNW,11.5,-,N/A,,Clear,300,2013-02-03 21:54:00
3:54 PM,37.9,25.0,60,29.97,10.0,North,11.5,-,N/A,,Clear,10,2013-02-03 22:54:00
4:54 PM,34.0,21.9,61,29.97,10.0,North,4.6,-,N/A,,Clear,350,2013-02-03 23:54:00
5:54 PM,30.9,19.9,64,29.98,10.0,Calm,Calm,-,N/A,,Clear,0,2013-02-04 00:54:00
6:54 PM,26.1,19.0,75,30.00,10.0,South,8.1,-,N/A,,Clear,190,2013-02-04 01:54:00
7:54 PM,26.1,18.0,71,29.98,10.0,SE,3.5,-,N/A,,Clear,130,2013-02-04 02:54:00
8:54 PM,24.1,18.0,77,29.97,10.0,SE,5.8,-,N/A,,Clear,130,2013-02-04 03:54:00
9:54 PM,21.0,16.0,81,29.97,10.0,SE,5.8,-,N/A,,Clear,140,2013-02-04 04:54:00
10:54 PM,21.0,15.1,78,29.96,10.0,South,5.8,-,N/A,,Clear,170,2013-02-04 05:54:00
11:54 PM,26.1,15.1,63,29.93,10.0,WSW,11.5,-,N/A,,Partly Cloudy,240,2013-02-04 06:54:00